,,Stat6,,Stat2,,Stat8,,Stat9,,Stat10,,Wind1,,Wind1,
time,status,PA1M_AVG,status,PR1M_SUM,status,RH1M_AVG,status,SR1M_AVG,status,TA1M_AVG,status,W1dAve1m,status,W1sAve1m,
2008-09-12, 07:37:00,VALID,917.19,VALID,0,VALID,97.7126,VALID,145.105,VALID,19.7343,VALID,178,VALID,0.960938,
2008-09-12, 07:38:00,VALID,917.203,VALID,0,VALID,97.5181,VALID,145.475,VALID,19.7774,VALID,161,VALID,1.30323,
2008-09-12, 07:39:00,VALID,917.221,VALID,0,VALID,97.1048,VALID,144.388,VALID,19.8141,VALID,175,VALID,1.41806,
2008-09-12, 07:40:00,VALID,917.239,VALID,0,VALID,96.6979,VALID,145.39,VALID,19.8658,VALID,180,VALID,1.85508,
2008-09-12, 07:41:00,VALID,917.251,VALID,0,VALID,96.4766,VALID,148.209,VALID,19.9042,VALID,174,VALID,1.94721,
2008-09-12, 07:42:00,VALID,917.273,VALID,0,VALID,96.4029,VALID,152.777,VALID,19.9339,VALID,161,VALID,1.2952,
2008-09-12, 07:43:00,VALID,917.294,VALID,0,VALID,96.5046,VALID,156.784,VALID,19.9661,VALID,176,VALID,1.34375,
2008-09-12, 07:44:00,VALID,917.296,VALID,0,VALID,96.4983,VALID,160.775,VALID,19.9729,VALID,161,VALID,1.56428,
2008-09-12, 07:45:00,VALID,917.3,VALID,0,VALID,96.7437,VALID,159.637,VALID,19.9856,VALID,151,VALID,0.44112,
2008-09-12, 07:46:00,VALID,917.313,VALID,0,VALID,96.4855,VALID,158.805,VALID,19.9923,VALID,169,VALID,1.42485,
2008-09-12, 07:47:00,VALID,917.317,VALID,0,VALID,96.1257,VALID,161.471,VALID,19.9826,VALID,154,VALID,1.95389,
2008-09-12, 07:48:00,VALID,917.336,VALID,0,VALID,95.9438,VALID,163.118,VALID,19.9731,VALID,163,VALID,1.86204,
2008-09-12, 07:49:00,VALID,917.357,VALID,0,VALID,95.9464,VALID,162.965,VALID,19.9796,VALID,162,VALID,1.64317,
2008-09-12, 07:50:00,VALID,917.385,VALID,0,VALID,96.0507,VALID,166.854,VALID,20.0091,VALID,159,VALID,1.74419,
2008-09-12, 07:51:00,VALID,917.397,VALID,0,VALID,95.6793,VALID,171.218,VALID,19.9796,VALID,161,VALID,1.92649,
2008-09-12, 07:52:00,VALID,917.415,VALID,0,VALID,95.9489,VALID,174.903,VALID,19.9714,VALID,164,VALID,1.43874,
2008-09-12, 07:53:00,VALID,917.419,VALID,0,VALID,96.305,VALID,180.557,VALID,20.0103,VALID,155,VALID,0.91887,
2008-09-12, 07:54:00,VALID,917.439,VALID,0,VALID,96.3444,VALID,186.11,VALID,20.043,VALID,168,VALID,1.25073,
2008-09-12, 07:55:00,VALID,917.439,VALID,0,VALID,96.2045,VALID,192.019,VALID,20.0692,VALID,166,VALID,1.09738,
2008-09-12, 07:56:00,VALID,917.459,VALID,0,VALID,96.057,VALID,196.706,VALID,20.0919,VALID,147,VALID,0.914063,
2008-09-12, 07:57:00,VALID,917.466,VALID,0,VALID,96.1117,VALID,201.766,VALID,20.1276,VALID,149,VALID,0.377378,
2008-09-12, 07:58:00,VALID,917.482,VALID,0,VALID,96.1638,VALID,205.655,VALID,20.1988,VALID,130,VALID,0.318266,
2008-09-12, 07:59:00,VALID,917.491,VALID,0,VALID,96.071,VALID,209.713,VALID,20.2769,VALID,163,VALID,0.0736861,
2008-09-12, 08:00:00,VALID,917.503,VALID,0,VALID,95.8307,VALID,213.992,VALID,20.3645,VALID,178,VALID,0.425409,
2008-09-12, 08:01:00,VALID,917.522,VALID,0,VALID,95.5166,VALID,220.785,VALID,20.4686,VALID,179,VALID,0.661044,
2008-09-12, 08:02:00,VALID,917.546,VALID,0,VALID,95.336,VALID,226.49,VALID,20.5495,VALID,142,VALID,0.198509,
2008-09-12, 08:03:00,VALID,917.584,VALID,0,VALID,95.3004,VALID,231.381,VALID,20.6466,VALID,134,VALID,0,
2008-09-12, 08:04:00,VALID,917.61,VALID,0,VALID,95.2368,VALID,236.951,VALID,20.764,VALID,134,VALID,0,
2008-09-12, 08:05:00,VALID,917.649,VALID,0,VALID,94.7028,VALID,244.065,VALID,20.8581,VALID,141,VALID,0.0821221,
2008-09-12, 08:06:00,VALID,917.674,VALID,0,VALID,94.1038,VALID,246.952,VALID,20.9392,VALID,148,VALID,0,
2008-09-12, 08:07:00,VALID,917.69,VALID,0,VALID,93.5354,VALID,248.022,VALID,21.0479,VALID,148,VALID,0,
2008-09-12, 08:08:00,VALID,917.72,VALID,0,VALID,93.3409,VALID,246.681,VALID,21.1288,VALID,154,VALID,0,
2008-09-12, 08:09:00,VALID,917.74,VALID,0,VALID,92.6885,VALID,245.916,VALID,21.191,VALID,176,VALID,0,
2008-09-12, 08:10:00,VALID,917.767,VALID,0,VALID,92.4011,VALID,243.352,VALID,21.2457,VALID,178,VALID,0,
2008-09-12, 08:11:00,VALID,917.803,VALID,0,VALID,91.8404,VALID,244.388,VALID,21.2681,VALID,177,VALID,0.337798,
2008-09-12, 08:12:00,VALID,917.829,VALID,0,VALID,91.3915,VALID,248.311,VALID,21.2324,VALID,157,VALID,0.0202753,
2008-09-12, 08:13:00,VALID,917.87,VALID,0,VALID,91.4932,VALID,246.918,VALID,21.2116,VALID,156,VALID,0,
2008-09-12, 08:14:00,VALID,917.893,VALID,0,VALID,91.2669,VALID,254.695,VALID,21.1986,VALID,165,VALID,0.688643,
2008-09-12, 08:15:00,VALID,917.912,VALID,0,VALID,90.9795,VALID,265.801,VALID,21.0883,VALID,164,VALID,0.792225,
2008-09-12, 08:16:00,VALID,917.922,VALID,0,VALID,91.8594,VALID,266.191,VALID,21.0371,VALID,146,VALID,0.840554,
2008-09-12, 08:17:00,VALID,917.933,VALID,0,VALID,91.7641,VALID,272.865,VALID,21.0236,VALID,178,VALID,0.871449,
2008-09-12, 08:18:00,VALID,917.934,VALID,0,VALID,91.6318,VALID,276.142,VALID,21.0334,VALID,158,VALID,0.611919,
2008-09-12, 08:19:00,VALID,917.928,VALID,0,VALID,91.9459,VALID,284.412,VALID,21.0791,VALID,182,VALID,0.517912,
2008-09-12, 08:20:00,VALID,917.926,VALID,0,VALID,91.6217,VALID,273.748,VALID,21.1448,VALID,176,VALID,0.733817,
2008-09-12, 08:21:00,VALID,917.912,VALID,0,VALID,90.6489,VALID,273.935,VALID,21.1283,VALID,173,VALID,1.03663,
2008-09-12, 08:22:00,VALID,917.908,VALID,0,VALID,90.921,VALID,285.006,VALID,21.1148,VALID,170,VALID,0.646662,
2008-09-12, 08:23:00,VALID,917.91,VALID,0,VALID,91.787,VALID,283.835,VALID,21.1794,VALID,162,VALID,0.652439,
2008-09-12, 08:24:00,VALID,917.919,VALID,0,VALID,92.199,VALID,285.991,VALID,21.3063,VALID,174,VALID,0.453311,
2008-09-12, 08:25:00,VALID,917.939,VALID,0,VALID,91.8505,VALID,304.551,VALID,21.4137,VALID,195,VALID,0.689215,
2008-09-12, 08:26:00,VALID,917.922,VALID,0,VALID,91.2643,VALID,327.492,VALID,21.5108,VALID,165,VALID,0.560213,
2008-09-12, 08:27:00,VALID,917.935,VALID,0,VALID,90.9591,VALID,348.599,VALID,21.5733,VALID,153,VALID,0.487909,
2008-09-12, 08:28:00,VALID,917.928,VALID,0,VALID,90.776,VALID,366.803,VALID,21.6637,VALID,200,VALID,0.19752,
2008-09-12, 08:29:00,VALID,917.936,VALID,0,VALID,89.9012,VALID,377.365,VALID,21.7995,VALID,205,VALID,0.359189,
2008-09-12, 08:30:00,VALID,917.963,VALID,0,VALID,89.5375,VALID,360.537,VALID,21.8033,VALID,166,VALID,1.16024,
2008-09-12, 08:31:00,VALID,917.967,VALID,0,VALID,88.4083,VALID,380.744,VALID,21.7292,VALID,151,VALID,0.96968,
2008-09-12, 08:32:00,VALID,918.004,VALID,0,VALID,89.128,VALID,429.683,VALID,21.7448,VALID,166,VALID,0.661932,
2008-09-12, 08:33:00,VALID,918.023,VALID,0,VALID,89.2844,VALID,441.332,VALID,21.8815,VALID,171,VALID,0.941939,
2008-09-12, 08:34:00,VALID,918.024,VALID,0,VALID,88.2201,VALID,416.217,VALID,21.9077,VALID,157,VALID,0.996838,
2008-09-12, 08:35:00,VALID,918.025,VALID,0,VALID,88.9246,VALID,412.074,VALID,21.8882,VALID,113,VALID,1.20579,
2008-09-12, 08:36:00,VALID,918.036,VALID,0,VALID,89.2018,VALID,386.484,VALID,21.7838,VALID,99,VALID,1.47433,
2008-09-12, 08:37:00,VALID,918.02,VALID,0,VALID,88.2176,VALID,366.888,VALID,21.7167,VALID,133,VALID,1.08889,
2008-09-12, 08:38:00,VALID,918.004,VALID,0,VALID,88.889,VALID,379.114,VALID,21.7327,VALID,148,VALID,0.810243,
2008-09-12, 08:39:00,VALID,917.998,VALID,0,VALID,88.7771,VALID,360.605,VALID,21.823,VALID,150,VALID,1.19967,
2008-09-12, 08:40:00,VALID,917.995,VALID,0,VALID,88.9271,VALID,336.883,VALID,21.8723,VALID,157,VALID,0.337636,
2008-09-12, 08:41:00,VALID,917.996,VALID,0,VALID,89.0835,VALID,329.394,VALID,21.9307,VALID,139,VALID,0,
2008-09-12, 08:42:00,VALID,918.009,VALID,0,VALID,88.9169,VALID,311.955,VALID,22.0243,VALID,177,VALID,0.670541,
2008-09-12, 08:43:00,VALID,918.011,VALID,0,VALID,88.2188,VALID,299.015,VALID,22.0898,VALID,162,VALID,1.07813,
2008-09-12, 08:44:00,VALID,918.033,VALID,0,VALID,87.3452,VALID,283.919,VALID,22.0376,VALID,149,VALID,0.820313,
2008-09-12, 08:45:00,VALID,918.059,VALID,0,VALID,87.9607,VALID,272.491,VALID,22.0444,VALID,143,VALID,0.144159,
2008-09-12, 08:46:00,VALID,918.067,VALID,0,VALID,88.3079,VALID,269.876,VALID,22.1223,VALID,122,VALID,0.665777,
2008-09-12, 08:47:00,VALID,918.09,VALID,0,VALID,88.6779,VALID,273.103,VALID,22.1309,VALID,95,VALID,0.70625,
2008-09-12, 08:48:00,VALID,918.097,VALID,0,VALID,88.8407,VALID,276.872,VALID,22.0684,VALID,104,VALID,0.900298,
2008-09-12, 08:49:00,VALID,918.082,VALID,0,VALID,89.6964,VALID,276.601,VALID,22.1401,VALID,125,VALID,0.739583,
2008-09-12, 08:50:00,VALID,918.078,VALID,0,VALID,89.7511,VALID,280.048,VALID,22.2091,VALID,126,VALID,0.330669,
2008-09-12, 08:51:00,VALID,918.086,VALID,0,VALID,89.7448,VALID,286.959,VALID,22.2738,VALID,161,VALID,0.741815,
2008-09-12, 08:52:00,VALID,918.087,VALID,0,VALID,89.5299,VALID,288.436,VALID,22.3287,VALID,176,VALID,0.76029,
2008-09-12, 08:53:00,VALID,918.109,VALID,0,VALID,89.5642,VALID,290.033,VALID,22.414,VALID,164,VALID,0.790179,
2008-09-12, 08:54:00,VALID,918.123,VALID,0,VALID,88.6321,VALID,291.646,VALID,22.4194,VALID,170,VALID,1.02229,
2008-09-12, 08:55:00,VALID,918.137,VALID,0,VALID,87.0426,VALID,290.559,VALID,22.368,VALID,154,VALID,1.20211,
2008-09-12, 08:56:00,VALID,918.141,VALID,0,VALID,87.3249,VALID,289.048,VALID,22.2446,VALID,142,VALID,1.649,
2008-09-12, 08:57:00,VALID,918.141,VALID,0,VALID,88.9258,VALID,289.676,VALID,22.1012,VALID,130,VALID,1.46548,
2008-09-12, 08:58:00,VALID,918.134,VALID,0,VALID,89.2895,VALID,288.691,VALID,22.0268,VALID,150,VALID,1.07102,
2008-09-12, 08:59:00,VALID,918.122,VALID,0,VALID,90.0296,VALID,288.436,VALID,22.066,VALID,143,VALID,0.794727,
2008-09-12, 09:00:00,VALID,918.134,VALID,0,VALID,90.1898,VALID,288.08,VALID,22.0625,VALID,87,VALID,1.22184,
2008-09-12, 09:01:00,VALID,918.151,VALID,0,VALID,90.6565,VALID,287.876,VALID,22.1055,VALID,100,VALID,1.22712,
2008-09-12, 09:02:00,VALID,918.177,VALID,0,VALID,90.1288,VALID,285.652,VALID,22.063,VALID,132,VALID,1.09431,
2008-09-12, 09:03:00,VALID,918.182,VALID,0,VALID,89.8745,VALID,285.499,VALID,22.092,VALID,115,VALID,0.817042,
2008-09-12, 09:04:00,VALID,918.205,VALID,0,VALID,89.7308,VALID,289.71,VALID,22.1566,VALID,98,VALID,0.665551,
2008-09-12, 09:05:00,VALID,918.222,VALID,0,VALID,89.7359,VALID,288.912,VALID,22.1894,VALID,108,VALID,1.14482,
2008-09-12, 09:06:00,VALID,918.239,VALID,0,VALID,89.5375,VALID,285.244,VALID,22.1788,VALID,116,VALID,1.06904,
2008-09-12, 09:07:00,VALID,918.233,VALID,0,VALID,89.376,VALID,283.919,VALID,22.2375,VALID,113,VALID,0.71548,
2008-09-12, 09:08:00,VALID,918.242,VALID,0,VALID,88.9436,VALID,283.699,VALID,22.2732,VALID,118,VALID,1.26376,
2008-09-12, 09:09:00,VALID,918.254,VALID,0,VALID,88.5393,VALID,282.68,VALID,22.2443,VALID,140,VALID,1.28622,
2008-09-12, 09:10:00,VALID,918.244,VALID,0,VALID,88.4096,VALID,284.259,VALID,22.2351,VALID,146,VALID,1.28838,
2008-09-12, 09:11:00,VALID,918.241,VALID,0,VALID,88.7974,VALID,284.038,VALID,22.2752,VALID,146,VALID,0.955966,
2008-09-12, 09:12:00,VALID,918.26,VALID,0,VALID,88.4821,VALID,287.265,VALID,22.3369,VALID,147,VALID,1.29141,
2008-09-12, 09:13:00,VALID,918.248,VALID,0,VALID,87.784,VALID,288.199,VALID,22.3399,VALID,174,VALID,1.04794,
2008-09-12, 09:14:00,VALID,918.246,VALID,0,VALID,88.5126,VALID,289.676,VALID,22.393,VALID,147,VALID,1.10584,
2008-09-12, 09:15:00,VALID,918.255,VALID,0,VALID,88.5215,VALID,293.955,VALID,22.3794,VALID,164,VALID,1.05558,
2008-09-12, 09:16:00,VALID,918.246,VALID,0,VALID,88.3307,VALID,298.71,VALID,22.4281,VALID,169,VALID,0.618676,
2008-09-12, 09:17:00,VALID,918.254,VALID,0,VALID,88.3142,VALID,301.732,VALID,22.5651,VALID,192,VALID,0.753084,
2008-09-12, 09:18:00,VALID,918.248,VALID,0,VALID,86.993,VALID,301.902,VALID,22.6741,VALID,181,VALID,1.17551,
2008-09-12, 09:19:00,VALID,918.238,VALID,0,VALID,86.464,VALID,301.664,VALID,22.7275,VALID,176,VALID,1.11736,
2008-09-12, 09:20:00,VALID,918.241,VALID,0,VALID,86.5797,VALID,301.817,VALID,22.7564,VALID,157,VALID,0.905107,
2008-09-12, 09:21:00,VALID,918.24,VALID,0,VALID,86.7425,VALID,299.406,VALID,22.8016,VALID,184,VALID,0.885901,
2008-09-12, 09:22:00,VALID,918.247,VALID,0,VALID,86.3636,VALID,297.317,VALID,22.9056,VALID,212,VALID,0.917289,
2008-09-12, 09:23:00,VALID,918.264,VALID,0,VALID,85.4429,VALID,296.044,VALID,23.0488,VALID,190,VALID,0.914931,
2008-09-12, 09:24:00,VALID,918.274,VALID,0,VALID,85.0513,VALID,295.076,VALID,23.1557,VALID,169,VALID,0.706395,
2008-09-12, 09:25:00,VALID,918.272,VALID,0,VALID,84.577,VALID,294.702,VALID,23.2537,VALID,182,VALID,1.04781,
2008-09-12, 09:26:00,VALID,918.279,VALID,0,VALID,83.1032,VALID,286.433,VALID,23.2956,VALID,184,VALID,0.767578,
2008-09-12, 09:27:00,VALID,918.273,VALID,0,VALID,83.2062,VALID,286.602,VALID,23.3479,VALID,187,VALID,0.799679,
2008-09-12, 09:28:00,VALID,918.258,VALID,0,VALID,82.8934,VALID,287.825,VALID,23.4194,VALID,172,VALID,0.21968,
2008-09-12, 09:29:00,VALID,918.26,VALID,0,VALID,82.8476,VALID,289.167,VALID,23.4126,VALID,143,VALID,0.778832,
2008-09-12, 09:30:00,VALID,918.254,VALID,0,VALID,83.374,VALID,288.844,VALID,23.3804,VALID,160,VALID,0.730945,
2008-09-12, 09:31:00,VALID,918.247,VALID,0,VALID,82.9887,VALID,288.063,VALID,23.3639,VALID,149,VALID,0.547656,
2008-09-12, 09:32:00,VALID,918.236,VALID,0,VALID,82.8679,VALID,295.993,VALID,23.3928,VALID,161,VALID,0.739025,
2008-09-12, 09:33:00,VALID,918.233,VALID,0,VALID,83.4249,VALID,295.297,VALID,23.4746,VALID,164,VALID,0,
2008-09-12, 09:34:00,VALID,918.226,VALID,0,VALID,83.9424,VALID,295.432,VALID,23.5789,VALID,164,VALID,0,
2008-09-12, 09:35:00,VALID,918.211,VALID,0,VALID,82.9328,VALID,295.195,VALID,23.6175,VALID,164,VALID,0,
2008-09-12, 09:36:00,VALID,918.201,VALID,0,VALID,82.4496,VALID,295.195,VALID,23.7212,VALID,163,VALID,0.0693109,
2008-09-12, 09:37:00,VALID,918.184,VALID,0,VALID,80.6146,VALID,295.874,VALID,23.6967,VALID,147,VALID,1.00645,
2008-09-12, 09:38:00,VALID,918.173,VALID,0,VALID,81.8913,VALID,295.297,VALID,23.6742,VALID,88,VALID,0.587806,
2008-09-12, 09:39:00,VALID,918.149,VALID,0,VALID,81.1004,VALID,295.093,VALID,23.7008,VALID,34,VALID,0.627976,
2008-09-12, 09:40:00,VALID,918.126,VALID,0,VALID,80.6235,VALID,295.568,VALID,23.795,VALID,84,VALID,0.668423,
2008-09-12, 09:41:00,VALID,918.119,VALID,0,VALID,79.2311,VALID,296.4,VALID,23.7519,VALID,154,VALID,0.957403,
2008-09-12, 09:42:00,VALID,918.118,VALID,0,VALID,79.1777,VALID,298.048,VALID,23.7723,VALID,128,VALID,0.550959,
2008-09-12, 09:43:00,VALID,918.107,VALID,0,VALID,78.8547,VALID,298.727,VALID,23.7135,VALID,66,VALID,0.60245,
2008-09-12, 09:44:00,VALID,918.085,VALID,0,VALID,80.0984,VALID,299.661,VALID,23.7324,VALID,60,VALID,0.00279018,
2008-09-12, 09:45:00,VALID,918.084,VALID,0,VALID,79.1726,VALID,301.206,VALID,23.8299,VALID,69,VALID,0.438453,
2008-09-12, 09:46:00,VALID,918.092,VALID,0,VALID,78.9158,VALID,302.989,VALID,23.8925,VALID,78,VALID,0.0161966,
2008-09-12, 09:47:00,VALID,918.077,VALID,0,VALID,78.7085,VALID,304.993,VALID,24.0316,VALID,66,VALID,0,
2008-09-12, 09:48:00,VALID,918.075,VALID,0,VALID,77.4738,VALID,306.708,VALID,24.0413,VALID,79,VALID,0.324963,
2008-09-12, 09:49:00,VALID,918.077,VALID,0,VALID,78.5127,VALID,308.066,VALID,24.0549,VALID,85,VALID,0.727095,
2008-09-12, 09:50:00,VALID,918.053,VALID,0,VALID,78.1185,VALID,308.864,VALID,23.8987,VALID,91,VALID,1.04688,
2008-09-12, 09:51:00,VALID,918.053,VALID,0,VALID,78.5076,VALID,308.966,VALID,23.7525,VALID,81,VALID,0.791109,
2008-09-12, 09:52:00,VALID,918.041,VALID,0,VALID,79.7182,VALID,309.442,VALID,23.7921,VALID,65,VALID,0.429688,
2008-09-12, 09:53:00,VALID,918.022,VALID,0,VALID,79.4231,VALID,310.07,VALID,23.9282,VALID,119,VALID,0.258903,
2008-09-12, 09:54:00,VALID,918.001,VALID,0,VALID,78.3754,VALID,309.493,VALID,24.0189,VALID,89,VALID,0.0617378,
2008-09-12, 09:55:00,VALID,917.989,VALID,0,VALID,80.1619,VALID,309.153,VALID,24.0839,VALID,120,VALID,0.463825,
2008-09-12, 09:56:00,VALID,917.982,VALID,0,VALID,82.5182,VALID,307.879,VALID,24.2206,VALID,235,VALID,0.697972,
2008-09-12, 09:57:00,VALID,917.994,VALID,0,VALID,83.4834,VALID,307.047,VALID,24.2661,VALID,253,VALID,0.76508,
2008-09-12, 09:58:00,VALID,918.003,VALID,0,VALID,85.0831,VALID,305.825,VALID,24.2112,VALID,229,VALID,0.444196,
2008-09-12, 09:59:00,VALID,917.997,VALID,0,VALID,84.8605,VALID,305.451,VALID,24.221,VALID,212,VALID,0.357701,
2008-09-12, 10:00:00,VALID,917.991,VALID,0,VALID,83.3855,VALID,305.163,VALID,24.2827,VALID,222,VALID,0.286701,
2008-09-12, 10:01:00,VALID,917.996,VALID,0,VALID,81.5633,VALID,305.061,VALID,24.2921,VALID,265,VALID,0.53125,
2008-09-12, 10:02:00,VALID,918.013,VALID,0,VALID,82.2436,VALID,303.923,VALID,24.2726,VALID,214,VALID,0.868786,
2008-09-12, 10:03:00,VALID,918.006,VALID,0,VALID,82.531,VALID,303.04,VALID,24.2531,VALID,209,VALID,0.752308,
2008-09-12, 10:04:00,VALID,918.007,VALID,0,VALID,82.7484,VALID,290.457,VALID,24.2502,VALID,196,VALID,0.967478,
2008-09-12, 10:05:00,VALID,918.003,VALID,0,VALID,82.77,VALID,289.523,VALID,24.2239,VALID,225,VALID,0.586124,
2008-09-12, 10:06:00,VALID,918.012,VALID,0,VALID,82.7497,VALID,294.787,VALID,24.2304,VALID,223,VALID,0.191034,
2008-09-12, 10:07:00,VALID,917.997,VALID,0,VALID,83.1985,VALID,299.746,VALID,24.294,VALID,241,VALID,0.605859,
2008-09-12, 10:08:00,VALID,917.991,VALID,0,VALID,83.3003,VALID,299.134,VALID,24.3294,VALID,224,VALID,0.592685,
2008-09-12, 10:09:00,VALID,917.99,VALID,0,VALID,81.899,VALID,298.812,VALID,24.3005,VALID,225,VALID,1.06032,
2008-09-12, 10:10:00,VALID,917.979,VALID,0,VALID,82.5297,VALID,298.149,VALID,24.2355,VALID,232,VALID,1.09747,
2008-09-12, 10:11:00,VALID,917.967,VALID,0,VALID,82.826,VALID,297.351,VALID,24.138,VALID,238,VALID,0.912861,
2008-09-12, 10:12:00,VALID,917.949,VALID,0,VALID,83.5215,VALID,298.829,VALID,24.0704,VALID,204,VALID,1.33222,
2008-09-12, 10:13:00,VALID,917.945,VALID,0,VALID,84.6418,VALID,301.019,VALID,24.0178,VALID,227,VALID,1.12118,
2008-09-12, 10:14:00,VALID,917.938,VALID,0,VALID,85.4696,VALID,302.717,VALID,24.021,VALID,233,VALID,0.557958,
2008-09-12, 10:15:00,VALID,917.929,VALID,0,VALID,85.1352,VALID,304.636,VALID,24.0441,VALID,206,VALID,0.806076,
2008-09-12, 10:16:00,VALID,917.924,VALID,0,VALID,84.2756,VALID,306.198,VALID,24.0145,VALID,186,VALID,1.2907,
2008-09-12, 10:17:00,VALID,917.918,VALID,0,VALID,84.5884,VALID,307.676,VALID,24.006,VALID,175,VALID,0.668269,
2008-09-12, 10:18:00,VALID,917.904,VALID,0,VALID,84.3608,VALID,308.542,VALID,24.0311,VALID,206,VALID,0.458333,
2008-09-12, 10:19:00,VALID,917.911,VALID,0,VALID,83.3778,VALID,308.915,VALID,24.0928,VALID,208,VALID,0.109197,
2008-09-12, 10:20:00,VALID,917.903,VALID,0,VALID,82.5615,VALID,309.442,VALID,24.1218,VALID,236,VALID,0.638622,
2008-09-12, 10:21:00,VALID,917.897,VALID,0,VALID,82.2232,VALID,309.544,VALID,24.1244,VALID,208,VALID,1.25903,
2008-09-12, 10:22:00,VALID,917.892,VALID,0,VALID,82.4941,VALID,308.525,VALID,24.1167,VALID,239,VALID,0.863281,
2008-09-12, 10:23:00,VALID,917.882,VALID,0,VALID,82.4597,VALID,309.187,VALID,24.1504,VALID,228,VALID,0.631925,
2008-09-12, 10:24:00,VALID,917.875,VALID,0,VALID,83.5788,VALID,308.796,VALID,24.1888,VALID,206,VALID,1.04215,
2008-09-12, 10:25:00,VALID,917.859,VALID,0,VALID,84.287,VALID,308.898,VALID,24.2275,VALID,235,VALID,0.698475,
2008-09-12, 10:26:00,VALID,917.843,VALID,0,VALID,83.5877,VALID,308.881,VALID,24.2609,VALID,225,VALID,0.330124,
2008-09-12, 10:27:00,VALID,917.824,VALID,0,VALID,84.2552,VALID,309.476,VALID,24.3249,VALID,260,VALID,0,
2008-09-12, 10:28:00,VALID,917.825,VALID,0,VALID,84.1955,VALID,309.917,VALID,24.3607,VALID,231,VALID,0,
2008-09-12, 10:29:00,VALID,917.813,VALID,0,VALID,82.9429,VALID,310.698,VALID,24.3639,VALID,192,VALID,0,
2008-09-12, 10:30:00,VALID,917.805,VALID,0,VALID,79.7347,VALID,311.972,VALID,24.3252,VALID,190,VALID,0.087391,
2008-09-12, 10:31:00,VALID,917.807,VALID,0,VALID,78.9743,VALID,313.653,VALID,24.3639,VALID,208,VALID,0.789435,
2008-09-12, 10:32:00,VALID,917.822,VALID,0,VALID,78.004,VALID,315.911,VALID,24.4384,VALID,218,VALID,0.540838,
2008-09-12, 10:33:00,VALID,917.819,VALID,0,VALID,77.5043,VALID,318.645,VALID,24.5361,VALID,223,VALID,0.0408381,
2008-09-12, 10:34:00,VALID,917.84,VALID,0,VALID,77.9481,VALID,321.838,VALID,24.6369,VALID,211,VALID,0.786519,
2008-09-12, 10:35:00,VALID,917.857,VALID,0,VALID,77.3428,VALID,325.047,VALID,24.6446,VALID,170,VALID,0.882422,
2008-09-12, 10:36:00,VALID,917.859,VALID,0,VALID,77.9392,VALID,328.07,VALID,24.6209,VALID,170,VALID,0.294922,
2008-09-12, 10:37:00,VALID,917.87,VALID,0,VALID,78.6831,VALID,331.415,VALID,24.7347,VALID,193,VALID,0.321801,
2008-09-12, 10:38:00,VALID,917.874,VALID,0,VALID,77.6276,VALID,334.675,VALID,24.8094,VALID,186,VALID,0.947088,
2008-09-12, 10:39:00,VALID,917.871,VALID,0,VALID,77.2055,VALID,337.817,VALID,24.7734,VALID,181,VALID,0.709635,
2008-09-12, 10:40:00,VALID,917.869,VALID,0,VALID,77.1228,VALID,340.007,VALID,24.8068,VALID,201,VALID,0.779119,
2008-09-12, 10:41:00,VALID,917.865,VALID,0,VALID,75.841,VALID,341.773,VALID,24.7926,VALID,162,VALID,0.467297,
2008-09-12, 10:42:00,VALID,917.853,VALID,0,VALID,75.3464,VALID,343.369,VALID,24.7769,VALID,174,VALID,0,
2008-09-12, 10:43:00,VALID,917.866,VALID,0,VALID,75.5982,VALID,345.509,VALID,24.9034,VALID,185,VALID,0,
2008-09-12, 10:44:00,VALID,917.86,VALID,0,VALID,75.6274,VALID,347.19,VALID,25.0103,VALID,187,VALID,0,
2008-09-12, 10:45:00,VALID,917.864,VALID,0,VALID,75.012,VALID,348.769,VALID,25.0399,VALID,187,VALID,0,
2008-09-12, 10:46:00,VALID,917.877,VALID,0,VALID,75.8207,VALID,350.824,VALID,25.1516,VALID,252,VALID,0.447266,
2008-09-12, 10:47:00,VALID,917.874,VALID,0,VALID,76.2123,VALID,353.099,VALID,25.1448,VALID,253,VALID,0.763808,
2008-09-12, 10:48:00,VALID,917.877,VALID,0,VALID,75.7965,VALID,355.85,VALID,25.0444,VALID,233,VALID,0.85061,
2008-09-12, 10:49:00,VALID,917.862,VALID,0,VALID,75.2001,VALID,358.38,VALID,24.9696,VALID,201,VALID,0.491044,
2008-09-12, 10:50:00,VALID,917.857,VALID,0,VALID,75.1671,VALID,362.914,VALID,24.9271,VALID,186,VALID,0.0158155,
2008-09-12, 10:51:00,VALID,917.83,VALID,0,VALID,74.7653,VALID,367.737,VALID,24.9791,VALID,100,VALID,0.242527,
2008-09-12, 10:52:00,VALID,917.814,VALID,0,VALID,74.9649,VALID,372.712,VALID,24.9764,VALID,48,VALID,0.015439,
2008-09-12, 10:53:00,VALID,917.779,VALID,0,VALID,75.8245,VALID,378.571,VALID,25.0831,VALID,183,VALID,0.65904,
2008-09-12, 10:54:00,VALID,917.771,VALID,0,VALID,75.5028,VALID,385.499,VALID,25.2007,VALID,241,VALID,0.606534,
2008-09-12, 10:55:00,VALID,917.764,VALID,0,VALID,76.0089,VALID,396.434,VALID,25.2267,VALID,232,VALID,0.647321,
2008-09-12, 10:56:00,VALID,917.755,VALID,0,VALID,78.3461,VALID,409.595,VALID,25.2465,VALID,242,VALID,0.736852,
2008-09-12, 10:57:00,VALID,917.739,VALID,0,VALID,76.646,VALID,427.272,VALID,25.204,VALID,212,VALID,0.939328,
2008-09-12, 10:58:00,VALID,917.745,VALID,0,VALID,73.2025,VALID,446.986,VALID,25.1591,VALID,201,VALID,0.936384,
2008-09-12, 10:59:00,VALID,917.744,VALID,0,VALID,72.4242,VALID,481.712,VALID,25.2365,VALID,237,VALID,0.442835,
2008-09-12, 11:00:00,VALID,917.755,VALID,0,VALID,73.055,VALID,501.087,VALID,25.3704,VALID,202,VALID,0.101744,
2008-09-12, 11:01:00,VALID,917.763,VALID,0,VALID,70.2803,VALID,512.702,VALID,25.4478,VALID,219,VALID,1.12555,
2008-09-12, 11:02:00,VALID,917.748,VALID,0,VALID,71.1475,VALID,523.366,VALID,25.5095,VALID,256,VALID,0.543501,
2008-09-12, 11:03:00,VALID,917.754,VALID,0,VALID,71.9639,VALID,520.989,VALID,25.6233,VALID,213,VALID,0.524182,
2008-09-12, 11:04:00,VALID,917.751,VALID,0,VALID,71.4896,VALID,523.842,VALID,25.6847,VALID,230,VALID,1.00491,
2008-09-12, 11:05:00,VALID,917.738,VALID,0,VALID,69.998,VALID,533.045,VALID,25.6786,VALID,224,VALID,0.827195,
2008-09-12, 11:06:00,VALID,917.715,VALID,0,VALID,70.0298,VALID,548.702,VALID,25.6626,VALID,187,VALID,1.00654,
2008-09-12, 11:07:00,VALID,917.701,VALID,0,VALID,69.3775,VALID,573.443,VALID,25.6279,VALID,204,VALID,1.14653,
2008-09-12, 11:08:00,VALID,917.692,VALID,0,VALID,68.5242,VALID,586.773,VALID,25.6737,VALID,236,VALID,0.784091,
2008-09-12, 11:09:00,VALID,917.697,VALID,0,VALID,68.0207,VALID,599.899,VALID,25.7585,VALID,262,VALID,0.858467,
2008-09-12, 11:10:00,VALID,917.699,VALID,0,VALID,67.6684,VALID,585.652,VALID,25.7166,VALID,276,VALID,0.542696,
2008-09-12, 11:11:00,VALID,917.685,VALID,0,VALID,68.0423,VALID,584.582,VALID,25.6802,VALID,278,VALID,0.14082,